Location: Newark
(48.5667°N, 7.8167°E)
Time: 12:04:23
(UTC+00:00)

ISS - Pass Details

Date: 25 September 2021
Orbit: 418 x 423 km, 51.6° (Epoch: 19 October)

Event Time Altitude Azimuth Distance (km) Brightness Sun altitude
Rises 18:06:08 0° 268° (W) 2,361 2.2 -8.4°
Reaches altitude 10° 18:08:16 10° 274° (W) 1,499 0.7 -8.8°
Maximum altitude 18:11:33 52° 352° (N) 532 -3.1 -9.3°
Enters shadow 18:14:41 11° 69° (ENE) 1,430 -1.6 -9.8°
